IRIDIUM 39

Last updated on Wed Nov 29 2017 00:19:02 GMT+0000 (Greenwich Mean Time)

1 25042U 97069D 17332.41657061 .00000175 00000-0 43190-4 0 9994 2 25042 86.3896 309.1334 0020793 123.1160 237.2042 14.46201214 50452
UTC large
Height (km)
Speed (km/s)
/
Latitude / Longitude
Inclination (degrees)
Orbital Period (minutes)
Azimuth
Elevation
Range (km)
Doppler Factor

Next 0 passes for location: London (51.5072 / 0.1276)

Sorry there are no passes over London.